| time (UTC) | temp F | wind direction | speed MPH | gust MPH | rain 1hr in | rain 24hr in | rain mn in | humidity % | barometer mb |
| 20260509021934 | 62 | 344 | 0.0 | 0.0 | 0.00 | 0.01 | 0.01 | 69 | 1015.7 |
| 20260509021435 | 62 | 344 | 0.0 | 0.0 | 0.00 | 0.01 | 0.01 | 69 | 1015.6 |
| 20260509020935 | 62 | 344 | 0.0 | 0.0 | 0.00 | 0.01 | 0.01 | 70 | 1015.7 |
| 20260509020656 | 62 | 344 | 0.0 | 0.0 | 0.00 | 0.01 | 0.01 | 70 | 1015.8 |
| 20260509015934 | 63 | 344 | 0.0 | 0.0 | 0.00 | 0.01 | 0.01 | 70 | 1015.5 |
| 20260509015434 | 63 | 344 | 0.0 | 0.0 | 0.00 | 0.01 | 0.01 | 70 | 1015.5 |
| 20260509014935 | 63 | 344 | 0.0 | 0.0 | 0.00 | 0.01 | 0.01 | 69 | 1015.5 |
| 20260509014435 | 63 | 344 | 0.0 | 0.0 | 0.00 | 0.01 | 0.01 | 69 | 1015.4 |
| 20260509013935 | 63 | 344 | 0.0 | 0.0 | 0.00 | 0.01 | 0.01 | 69 | 1015.5 |
| 20260509013435 | 63 | 344 | 0.0 | 0.0 | 0.00 | 0.01 | 0.01 | 69 | 1015.3 |
| 20260509012934 | 63 | 344 | 0.0 | 0.0 | 0.00 | 0.01 | 0.01 | 68 | 1015.3 |
| 20260509012434 | 64 | 344 | 0.0 | 0.0 | 0.00 | 0.01 | 0.01 | 68 | 1015.2 |
| 20260509011934 | 64 | 344 | 0.0 | 0.0 | 0.00 | 0.01 | 0.01 | 67 | 1015.2 |
| 20260509011437 | 64 | 344 | 0.0 | 0.0 | 0.00 | 0.01 | 0.01 | 67 | 1015.3 |
| 20260509010936 | 64 | 344 | 0.0 | 0.0 | 0.00 | 0.01 | 0.01 | 66 | 1015.2 |
| 20260509010436 | 64 | 344 | 0.0 | 0.0 | 0.00 | 0.01 | 0.01 | 66 | 1015.0 |
| 20260509005936 | 65 | 344 | 0.0 | 0.0 | 0.00 | 0.01 | 0.01 | 66 | 1015.1 |
| 20260509005434 | 65 | 344 | 0.0 | 0.0 | 0.00 | 0.01 | 0.01 | 66 | 1015.1 |
| 20260509004934 | 65 | 344 | 0.0 | 0.0 | 0.00 | 0.01 | 0.01 | 64 | 1015.0 |
| 20260509004434 | 65 | 344 | 0.0 | 0.0 | 0.00 | 0.01 | 0.01 | 63 | 1015.0 |
| 20260509004205 | 66 | 344 | 0.0 | 0.0 | 0.00 | 0.01 | 0.01 | 64 | 1015.0 |
| 20260509003435 | 66 | 344 | 0.0 | 0.0 | 0.00 | 0.01 | 0.01 | 63 | 1014.9 |
| 20260509002935 | 66 | 344 | 0.0 | 0.0 | 0.00 | 0.01 | 0.01 | 62 | 1014.9 |
| 20260509002432 | 67 | 344 | 0.0 | 0.0 | 0.00 | 0.01 | 0.01 | 61 | 1014.8 |
| 20260509001930 | 67 | 344 | 0.0 | 0.0 | 0.00 | 0.01 | 0.01 | 61 | 1014.7 |
| 20260509001428 | 67 | 344 | 0.0 | 0.0 | 0.00 | 0.01 | 0.01 | 59 | 1014.6 |
| 20260509000928 | 68 | 344 | 0.0 | 0.0 | 0.00 | 0.01 | 0.01 | 59 | 1014.7 |
| 20260509000428 | 68 | 344 | 0.0 | 0.0 | 0.00 | 0.01 | 0.01 | 57 | 1014.7 |
| 20260508235928 | 68 | 344 | 0.0 | 0.0 | 0.00 | 0.01 | 0.01 | 56 | 1014.7 |
| 20260508235430 | 68 | 344 | 0.0 | 0.0 | 0.00 | 0.01 | 0.01 | 56 | 1014.7 |
| 20260508234927 | 68 | 344 | 0.0 | 1.0 | 0.00 | 0.03 | 0.01 | 55 | 1014.6 |
| 20260508234647 | 69 | 344 | 0.0 | 1.0 | 0.00 | 0.04 | 0.01 | 55 | 1014.6 |
| 20260508234147 | 69 | 170 | 0.0 | 1.0 | 0.00 | 0.05 | 0.01 | 54 | 1014.5 |
| 20260508233421 | 69 | 170 | 0.0 | 2.0 | 0.00 | 0.05 | 0.01 | 54 | 1014.4 |
| 20260508233138 | 69 | 170 | 0.0 | 2.0 | 0.00 | 0.06 | 0.01 | 54 | 1014.5 |
| 20260508232418 | 69 | 172 | 0.0 | 2.0 | 0.00 | 0.07 | 0.01 | 54 | 1014.6 |
| 20260508231918 | 69 | 172 | 0.0 | 2.0 | 0.00 | 0.08 | 0.01 | 53 | 1014.3 |
| 20260508231417 | 69 | 54 | 0.0 | 2.0 | 0.00 | 0.11 | 0.01 | 52 | 1014.5 |
| 20260508230915 | 70 | 346 | 0.0 | 0.0 | 0.00 | 0.11 | 0.01 | 51 | 1014.6 |
| 20260508230415 | 70 | 278 | 0.0 | 0.0 | 0.00 | 0.11 | 0.01 | 50 | 1014.5 |
| 20260508225914 | 70 | 278 | 0.0 | 0.0 | 0.00 | 0.11 | 0.01 | 51 | 1014.4 |
| 20260508225412 | 70 | 278 | 0.0 | 0.0 | 0.00 | 0.11 | 0.01 | 50 | 1014.6 |
| 20260508224913 | 70 | 278 | 0.0 | 1.0 | 0.00 | 0.11 | 0.01 | 50 | 1014.6 |
| 20260508224409 | 70 | 277 | 0.0 | 2.0 | 0.00 | 0.11 | 0.01 | 51 | 1014.6 |
| 20260508223901 | 70 | 277 | 1.0 | 2.0 | 0.00 | 0.11 | 0.01 | 49 | 1014.5 |
| 20260508223355 | 71 | 277 | 1.0 | 3.0 | 0.00 | 0.11 | 0.01 | 48 | 1014.6 |
| 20260508222849 | 71 | 277 | 1.0 | 3.0 | 0.00 | 0.11 | 0.01 | 47 | 1014.6 |
| 20260508222343 | 71 | 255 | 1.0 | 2.0 | 0.00 | 0.11 | 0.01 | 48 | 1014.5 |
| 20260508221837 | 71 | 254 | 0.0 | 2.0 | 0.00 | 0.11 | 0.01 | 51 | 1014.6 |
| 20260508221332 | 71 | 254 | 1.0 | 3.0 | 0.00 | 0.11 | 0.01 | 52 | 1014.6 |
| 20260508220825 | 71 | 254 | 1.0 | 3.0 | 0.00 | 0.11 | 0.01 | 50 | 1014.6 |
| 20260508220320 | 71 | 240 | 1.0 | 3.0 | 0.00 | 0.11 | 0.01 | 47 | 1014.7 |
| 20260508215813 | 71 | 241 | 1.0 | 3.0 | 0.00 | 0.11 | 0.01 | 48 | 1014.6 |
| 20260508215530 | 71 | 216 | 1.0 | 3.0 | 0.00 | 0.11 | 0.01 | 46 | 1014.7 |
| 20260508214802 | 71 | 268 | 1.0 | 3.0 | 0.00 | 0.11 | 0.01 | 46 | 1014.7 |
| 20260508214255 | 71 | 268 | 2.0 | 4.0 | 0.00 | 0.11 | 0.01 | 47 | 1014.7 |
| 20260508213749 | 72 | 257 | 2.0 | 4.0 | 0.00 | 0.11 | 0.01 | 47 | 1014.5 |
| 20260508213243 | 72 | 283 | 1.0 | 4.0 | 0.00 | 0.11 | 0.01 | 48 | 1014.4 |
| 20260508212738 | 71 | 205 | 1.0 | 3.0 | 0.00 | 0.11 | 0.01 | 45 | 1014.4 |
| 20260508212450 | 71 | 205 | 1.0 | 3.0 | 0.00 | 0.11 | 0.01 | 46 | 1014.4 |
| 20260508211725 | 71 | 221 | 1.0 | 3.0 | 0.00 | 0.11 | 0.01 | 44 | 1014.5 |
| 20260508211446 | 71 | 221 | 1.0 | 4.0 | 0.00 | 0.11 | 0.01 | 44 | 1014.5 |
| 20260508210714 | 71 | 87 | 2.0 | 4.0 | 0.00 | 0.11 | 0.01 | 45 | 1014.6 |
| 20260508210207 | 72 | 190 | 1.0 | 4.0 | 0.00 | 0.11 | 0.01 | 43 | 1014.7 |
| 20260508205700 | 72 | 74 | 1.0 | 3.0 | 0.00 | 0.11 | 0.01 | 45 | 1014.6 |
| 20260508205155 | 72 | 298 | 2.0 | 3.0 | 0.00 | 0.11 | 0.01 | 42 | 1014.7 |
| 20260508204649 | 72 | 227 | 1.0 | 3.0 | 0.00 | 0.11 | 0.01 | 42 | 1014.8 |
| 20260508204405 | 72 | 231 | 1.0 | 6.0 | 0.00 | 0.11 | 0.01 | 41 | 1014.8 |
| 20260508203637 | 73 | 211 | 2.0 | 6.0 | 0.00 | 0.11 | 0.01 | 42 | 1014.9 |
| 20260508203131 | 73 | 270 | 3.0 | 6.0 | 0.00 | 0.11 | 0.01 | 42 | 1014.9 |
| 20260508202625 | 74 | 146 | 3.0 | 6.0 | 0.00 | 0.11 | 0.01 | 39 | 1014.9 |
| 20260508202119 | 74 | 232 | 2.0 | 6.0 | 0.00 | 0.11 | 0.01 | 39 | 1014.9 |
| 20260508201613 | 74 | 246 | 1.0 | 4.0 | 0.00 | 0.11 | 0.01 | 38 | 1015.0 |
| 20260508201107 | 74 | 80 | 1.0 | 6.0 | 0.00 | 0.11 | 0.01 | 40 | 1015.1 |
| 20260508200601 | 74 | 81 | 2.0 | 8.0 | 0.00 | 0.11 | 0.01 | 38 | 1015.2 |
| 20260508200056 | 74 | 187 | 2.0 | 8.0 | 0.00 | 0.11 | 0.01 | 42 | 1015.2 |
| 20260508195549 | 74 | 90 | 2.0 | 7.0 | 0.00 | 0.11 | 0.01 | 38 | 1015.3 |
| 20260508195044 | 74 | 89 | 2.0 | 7.0 | 0.00 | 0.11 | 0.01 | 37 | 1015.3 |
| 20260508194537 | 74 | 272 | 3.0 | 7.0 | 0.00 | 0.11 | 0.01 | 40 | 1015.3 |
| 20260508194255 | 75 | 236 | 3.0 | 8.0 | 0.00 | 0.11 | 0.01 | 35 | 1015.3 |
| 20260508193751 | 75 | 263 | 4.0 | 9.0 | 0.00 | 0.11 | 0.01 | 37 | 1015.5 |
| 20260508193019 | 75 | 316 | 3.0 | 9.0 | 0.00 | 0.11 | 0.01 | 40 | 1015.5 |
| 20260508192514 | 74 | 252 | 2.0 | 8.0 | 0.00 | 0.11 | 0.01 | 41 | 1015.8 |
| 20260508192008 | 74 | 155 | 2.0 | 5.0 | 0.00 | 0.11 | 0.01 | 39 | 1015.9 |
| 20260508191502 | 74 | 92 | 2.0 | 6.0 | 0.00 | 0.11 | 0.01 | 41 | 1016.0 |
| 20260508191218 | 74 | 257 | 3.0 | 8.0 | 0.00 | 0.11 | 0.01 | 40 | 1016.0 |
| 20260508190449 | 73 | 248 | 3.0 | 8.0 | 0.00 | 0.11 | 0.01 | 40 | 1016.1 |
| 20260508185943 | 73 | 259 | 2.0 | 6.0 | 0.00 | 0.11 | 0.01 | 42 | 1016.1 |
| 20260508185438 | 73 | 336 | 3.0 | 5.0 | 0.00 | 0.11 | 0.01 | 42 | 1016.1 |
| 20260508184931 | 74 | 319 | 2.0 | 5.0 | 0.00 | 0.11 | 0.01 | 40 | 1016.0 |
| 20260508184427 | 73 | 200 | 2.0 | 10.0 | 0.00 | 0.11 | 0.01 | 39 | 1016.2 |
| 20260508183919 | 73 | 123 | 3.0 | 10.0 | 0.00 | 0.11 | 0.01 | 41 | 1016.4 |
| 20260508183413 | 73 | 97 | 3.0 | 9.0 | 0.00 | 0.11 | 0.01 | 42 | 1016.4 |
| 20260508183139 | 73 | 296 | 3.0 | 9.0 | 0.00 | 0.11 | 0.01 | 39 | 1016.5 |
| 20260508182401 | 73 | 88 | 2.0 | 7.0 | 0.00 | 0.11 | 0.01 | 41 | 1016.4 |
| 20260508181857 | 72 | 77 | 2.0 | 7.0 | 0.00 | 0.11 | 0.01 | 43 | 1016.3 |
| 20260508181349 | 72 | 225 | 2.0 | 5.0 | 0.00 | 0.11 | 0.01 | 39 | 1016.5 |
| 20260508180844 | 72 | 60 | 3.0 | 8.0 | 0.00 | 0.11 | 0.01 | 43 | 1016.5 |
| 20260508180337 | 72 | 87 | 3.0 | 8.0 | 0.00 | 0.11 | 0.01 | 41 | 1016.8 |
| 20260508175832 | 72 | 138 | 1.0 | 5.0 | 0.00 | 0.11 | 0.01 | 39 | 1016.9 |
| 20260508175326 | 72 | 279 | 3.0 | 8.0 | 0.00 | 0.11 | 0.01 | 43 | 1016.7 |
| 20260508174819 | 71 | 70 | 4.0 | 8.0 | 0.00 | 0.11 | 0.01 | 40 | 1016.8 |
| 20260508174313 | 72 | 302 | 2.0 | 7.0 | 0.00 | 0.11 | 0.01 | 41 | 1016.9 |
| 20260508173809 | 72 | 9 | 2.0 | 4.0 | 0.00 | 0.11 | 0.01 | 43 | 1017.0 |
| 20260508173301 | 71 | 5 | 2.0 | 5.0 | 0.00 | 0.11 | 0.01 | 41 | 1017.1 |
| 20260508172801 | 72 | 355 | 3.0 | 7.0 | 0.00 | 0.11 | 0.01 | 45 | 1017.1 |
| 20260508172259 | 71 | 107 | 2.0 | 7.0 | 0.00 | 0.11 | 0.01 | 42 | 1017.2 |
| 20260508171801 | 71 | 81 | 2.0 | 5.0 | 0.00 | 0.11 | 0.01 | 43 | 1017.3 |
| 20260508171300 | 71 | 144 | 2.0 | 7.0 | 0.00 | 0.11 | 0.01 | 41 | 1017.4 |
| 20260508170800 | 71 | 229 | 2.0 | 7.0 | 0.00 | 0.11 | 0.01 | 43 | 1017.4 |
| 20260508170300 | 71 | 165 | 3.0 | 7.0 | 0.00 | 0.11 | 0.01 | 42 | 1017.6 |
| 20260508165800 | 71 | 216 | 2.0 | 7.0 | 0.00 | 0.11 | 0.01 | 46 | 1017.8 |
| 20260508165518 | 70 | 78 | 2.0 | 7.0 | 0.00 | 0.11 | 0.01 | 47 | 1017.7 |
| 20260508164800 | 70 | 79 | 3.0 | 7.0 | 0.00 | 0.11 | 0.01 | 45 | 1017.8 |
| 20260508164257 | 70 | 84 | 2.0 | 6.0 | 0.00 | 0.11 | 0.01 | 43 | 1018.0 |
| 20260508163758 | 70 | 77 | 3.0 | 6.0 | 0.00 | 0.11 | 0.01 | 47 | 1017.9 |
| 20260508163258 | 70 | 202 | 3.0 | 8.0 | 0.00 | 0.11 | 0.01 | 45 | 1017.9 |
| 20260508162758 | 69 | 83 | 3.0 | 8.0 | 0.00 | 0.11 | 0.01 | 48 | 1018.0 |
| 20260508162258 | 69 | 78 | 2.0 | 4.0 | 0.00 | 0.11 | 0.01 | 44 | 1018.0 |
| 20260508161758 | 69 | 5 | 2.0 | 7.0 | 0.00 | 0.11 | 0.01 | 45 | 1018.1 |
| 20260508161259 | 69 | 99 | 2.0 | 7.0 | 0.00 | 0.11 | 0.01 | 46 | 1018.2 |
| 20260508160752 | 69 | 298 | 2.0 | 3.0 | 0.00 | 0.11 | 0.01 | 47 | 1018.2 |
| 20260508160249 | 68 | 58 | 1.0 | 5.0 | 0.00 | 0.11 | 0.01 | 48 | 1018.3 |
| 20260508155748 | 68 | 216 | 1.0 | 5.0 | 0.00 | 0.11 | 0.01 | 51 | 1018.4 |
| 20260508155248 | 68 | 236 | 2.0 | 5.0 | 0.00 | 0.11 | 0.01 | 48 | 1018.5 |
| 20260508154746 | 68 | 261 | 3.0 | 5.0 | 0.00 | 0.11 | 0.01 | 48 | 1018.5 |
| 20260508154246 | 67 | 253 | 2.0 | 5.0 | 0.00 | 0.11 | 0.01 | 50 | 1018.5 |
| 20260508153746 | 67 | 227 | 2.0 | 4.0 | 0.00 | 0.11 | 0.01 | 50 | 1018.6 |
| 20260508153507 | 67 | 329 | 2.0 | 6.0 | 0.00 | 0.11 | 0.01 | 50 | 1018.6 |
| 20260508153006 | 67 | 51 | 2.0 | 6.0 | 0.00 | 0.11 | 0.01 | 49 | 1018.6 |
| 20260508152246 | 67 | 9 | 3.0 | 6.0 | 0.00 | 0.11 | 0.01 | 54 | 1018.5 |
| 20260508151744 | 66 | 130 | 4.0 | 9.0 | 0.00 | 0.11 | 0.01 | 58 | 1018.5 |
| 20260508151242 | 65 | 42 | 3.0 | 9.0 | 0.00 | 0.11 | 0.01 | 55 | 1018.5 |
| 20260508150741 | 65 | 46 | 2.0 | 8.0 | 0.00 | 0.11 | 0.01 | 55 | 1018.6 |
| 20260508150242 | 65 | 67 | 2.0 | 4.0 | 0.00 | 0.11 | 0.01 | 57 | 1018.6 |
| 20260508145743 | 64 | 109 | 2.0 | 7.0 | 0.00 | 0.11 | 0.01 | 58 | 1018.6 |
| 20260508145242 | 64 | 105 | 3.0 | 7.0 | 0.00 | 0.11 | 0.01 | 62 | 1018.6 |
| 20260508144741 | 63 | 58 | 3.0 | 7.0 | 0.00 | 0.11 | 0.01 | 64 | 1018.6 |
| 20260508144241 | 63 | 60 | 2.0 | 7.0 | 0.00 | 0.11 | 0.01 | 62 | 1018.6 |
| 20260508143741 | 62 | 115 | 2.0 | 7.0 | 0.00 | 0.11 | 0.01 | 66 | 1018.7 |
| 20260508143242 | 62 | 57 | 3.0 | 8.0 | 0.00 | 0.11 | 0.01 | 67 | 1018.6 |
| 20260508142743 | 61 | 116 | 3.0 | 8.0 | 0.00 | 0.12 | 0.01 | 72 | 1018.7 |
| 20260508142242 | 60 | 86 | 2.0 | 4.0 | 0.00 | 0.12 | 0.01 | 74 | 1018.7 |
| 20260508142000 | 59 | 76 | 2.0 | 7.0 | 0.00 | 0.13 | 0.01 | 80 | 1018.7 |
| 20260508141242 | 59 | 78 | 2.0 | 7.0 | 0.00 | 0.13 | 0.01 | 83 | 1018.7 |
| 20260508140738 | 58 | 126 | 2.0 | 6.0 | 0.00 | 0.14 | 0.01 | 85 | 1018.7 |
| 20260508140237 | 57 | 90 | 3.0 | 7.0 | 0.00 | 0.14 | 0.01 | 87 | 1018.8 |
| 20260508135737 | 56 | 88 | 2.0 | 7.0 | 0.00 | 0.14 | 0.01 | 90 | 1018.8 |
| 20260508135238 | 56 | 92 | 2.0 | 4.0 | 0.00 | 0.14 | 0.01 | 92 | 1018.7 |
| 20260508134959 | 55 | 87 | 1.0 | 4.0 | 0.00 | 0.14 | 0.01 | 92 | 1018.7 |
| 20260508134238 | 55 | 84 | 2.0 | 7.0 | 0.00 | 0.14 | 0.01 | 93 | 1018.7 |
| 20260508133956 | 54 | 90 | 2.0 | 7.0 | 0.00 | 0.15 | 0.01 | 93 | 1018.7 |
| 20260508133237 | 54 | 78 | 2.0 | 5.0 | 0.00 | 0.15 | 0.01 | 93 | 1018.6 |
| 20260508133003 | 54 | 28 | 1.0 | 6.0 | 0.00 | 0.15 | 0.01 | 94 | 1018.6 |
| 20260508132234 | 54 | 29 | 1.0 | 6.0 | 0.00 | 0.15 | 0.01 | 94 | 1018.6 |
| 20260508131734 | 54 | 101 | 2.0 | 8.0 | 0.00 | 0.15 | 0.01 | 95 | 1018.6 |
| 20260508131234 | 54 | 107 | 2.0 | 8.0 | 0.00 | 0.15 | 0.01 | 95 | 1018.6 |
| 20260508130734 | 54 | 89 | 1.0 | 2.0 | 0.00 | 0.16 | 0.01 | 95 | 1018.6 |
| 20260508130234 | 54 | 88 | 0.0 | 3.0 | 0.00 | 0.16 | 0.01 | 95 | 1018.5 |
| 20260508130003 | 53 | 90 | 0.0 | 3.0 | 0.00 | 0.16 | 0.01 | 94 | 1018.4 |
| 20260508125235 | 53 | 90 | 1.0 | 6.0 | 0.00 | 0.17 | 0.01 | 94 | 1018.5 |
| 20260508125002 | 53 | 90 | 1.0 | 6.0 | 0.00 | 0.18 | 0.01 | 95 | 1018.3 |
| 20260508124235 | 53 | 80 | 1.0 | 4.0 | 0.01 | 0.19 | 0.01 | 95 | 1018.2 |
| 20260508123731 | 53 | 40 | 0.0 | 3.0 | 0.01 | 0.21 | 0.01 | 95 | 1018.1 |
| 20260508123231 | 53 | 53 | 0.0 | 2.0 | 0.01 | 0.24 | 0.01 | 95 | 1018.1 |
| 20260508122730 | 53 | 54 | 0.0 | 2.0 | 0.01 | 0.29 | 0.01 | 95 | 1018.1 |
| 20260508122227 | 53 | 55 | 0.0 | 2.0 | 0.01 | 0.35 | 0.01 | 95 | 1018.0 |
| 20260508121725 | 52 | 54 | 0.0 | 1.0 | 0.01 | 0.42 | 0.01 | 95 | 1018.0 |
| 20260508121225 | 52 | 298 | 0.0 | 0.0 | 0.01 | 0.48 | 0.01 | 94 | 1017.9 |
| 20260508120725 | 52 | 298 | 0.0 | 0.0 | 0.01 | 0.60 | 0.01 | 95 | 1017.9 |
| 20260508120223 | 52 | 298 | 0.0 | 0.0 | 0.01 | 0.63 | 0.01 | 94 | 1017.9 |
| 20260508115952 | 51 | 297 | 0.0 | 0.0 | 0.01 | 0.65 | 0.01 | 94 | 1017.8 |
| 20260508115224 | 51 | 297 | 0.0 | 0.0 | 0.01 | 0.66 | 0.01 | 94 | 1017.9 |
| 20260508114723 | 51 | 297 | 0.0 | 0.0 | 0.01 | 0.67 | 0.01 | 94 | 1017.8 |
| 20260508114442 | 50 | 297 | 0.0 | 0.0 | 0.00 | 0.67 | 0.00 | 94 | 1017.5 |
| 20260508113717 | 50 | 297 | 0.0 | 0.0 | 0.00 | 0.71 | 0.00 | 94 | 1017.4 |
| 20260508113216 | 50 | 297 | 0.0 | 0.0 | 0.00 | 0.75 | 0.00 | 94 | 1017.4 |
| 20260508112715 | 50 | 123 | 0.0 | 0.0 | 0.00 | 0.77 | 0.00 | 93 | 1017.3 |
| 20260508112426 | 50 | 123 | 0.0 | 0.0 | 0.00 | 0.77 | 0.00 | 93 | 1017.2 |
| 20260508111703 | 50 | 123 | 0.0 | 0.0 | 0.00 | 0.77 | 0.00 | 93 | 1017.2 |
| 20260508111202 | 50 | 123 | 0.0 | 0.0 | 0.00 | 0.77 | 0.00 | 93 | 1017.0 |
| 20260508110701 | 50 | 123 | 0.0 | 0.0 | 0.00 | 0.77 | 0.00 | 93 | 1017.0 |
| 20260508110157 | 50 | 123 | 0.0 | 0.0 | 0.00 | 0.77 | 0.00 | 93 | 1016.9 |
| 20260508105657 | 50 | 123 | 0.0 | 0.0 | 0.00 | 0.77 | 0.00 | 93 | 1016.9 |
| 20260508105157 | 50 | 123 | 0.0 | 0.0 | 0.00 | 0.77 | 0.00 | 93 | 1016.8 |
| 20260508104657 | 50 | 123 | 0.0 | 0.0 | 0.00 | 0.77 | 0.00 | 93 | 1016.8 |
| 20260508104159 | 50 | 126 | 0.0 | 0.0 | 0.00 | 0.77 | 0.00 | 93 | 1016.6 |
| 20260508103924 | 50 | 126 | 0.0 | 0.0 | 0.00 | 0.77 | 0.00 | 93 | 1016.5 |
| 20260508103155 | 50 | 126 | 0.0 | 0.0 | 0.00 | 0.77 | 0.00 | 93 | 1016.4 |
| 20260508102654 | 50 | 126 | 0.0 | 0.0 | 0.00 | 0.77 | 0.00 | 93 | 1016.2 |
| 20260508102153 | 50 | 323 | 0.0 | 0.0 | 0.00 | 0.77 | 0.00 | 93 | 1016.1 |
| 20260508101653 | 50 | 26 | 0.0 | 0.0 | 0.00 | 0.77 | 0.00 | 93 | 1016.1 |
| 20260508101153 | 51 | 26 | 0.0 | 0.0 | 0.00 | 0.77 | 0.00 | 93 | 1016.1 |
| 20260508100653 | 51 | 26 | 0.0 | 0.0 | 0.00 | 0.77 | 0.00 | 93 | 1016.1 |
| 20260508100154 | 51 | 26 | 0.0 | 0.0 | 0.00 | 0.77 | 0.00 | 93 | 1016.1 |
| 20260508095654 | 51 | 26 | 0.0 | 0.0 | 0.00 | 0.77 | 0.00 | 93 | 1016.1 |
| 20260508095152 | 51 | 26 | 0.0 | 0.0 | 0.00 | 0.77 | 0.00 | 93 | 1015.9 |
| 20260508094650 | 51 | 26 | 0.0 | 0.0 | 0.00 | 0.77 | 0.00 | 93 | 1016.0 |
| 20260508094150 | 51 | 26 | 0.0 | 0.0 | 0.00 | 0.77 | 0.00 | 93 | 1015.9 |
| 20260508093902 | 51 | 26 | 0.0 | 0.0 | 0.00 | 0.77 | 0.00 | 93 | 1015.9 |
| 20260508093138 | 51 | 26 | 0.0 | 0.0 | 0.00 | 0.78 | 0.00 | 93 | 1015.9 |
| 20260508092633 | 51 | 26 | 0.0 | 0.0 | 0.00 | 0.78 | 0.00 | 93 | 1015.8 |
| 20260508091620 | 52 | 26 | 0.0 | 0.0 | 0.00 | 0.80 | 0.00 | 93 | 1015.8 |
| 20260508091116 | 52 | 26 | 0.0 | 0.0 | 0.00 | 0.80 | 0.00 | 93 | 1015.7 |
| 20260508090608 | 52 | 26 | 0.0 | 0.0 | 0.00 | 0.80 | 0.00 | 93 | 1015.7 |
| 20260508090104 | 52 | 26 | 0.0 | 0.0 | 0.00 | 0.81 | 0.00 | 93 | 1015.6 |
| 20260508085556 | 52 | 26 | 0.0 | 0.0 | 0.00 | 0.81 | 0.00 | 93 | 1015.7 |
| 20260508085052 | 52 | 26 | 0.0 | 0.0 | 0.00 | 0.82 | 0.00 | 93 | 1015.7 |
| 20260508084544 | 52 | 26 | 0.0 | 0.0 | 0.00 | 0.82 | 0.00 | 93 | 1015.6 |
| 20260508084038 | 52 | 26 | 0.0 | 0.0 | 0.00 | 0.83 | 0.00 | 93 | 1015.6 |
| 20260508083532 | 53 | 26 | 0.0 | 0.0 | 0.00 | 0.84 | 0.00 | 93 | 1015.6 |
| 20260508083026 | 53 | 26 | 0.0 | 0.0 | 0.00 | 0.84 | 0.00 | 93 | 1015.4 |
| 20260508082520 | 53 | 26 | 0.0 | 0.0 | 0.00 | 0.84 | 0.00 | 93 | 1015.5 |
| 20260508082238 | 53 | 26 | 0.0 | 0.0 | 0.00 | 0.85 | 0.00 | 93 | 1015.5 |
| 20260508081508 | 53 | 26 | 0.0 | 0.0 | 0.00 | 0.85 | 0.00 | 93 | 1015.4 |
| 20260508081222 | 53 | 26 | 0.0 | 0.0 | 0.00 | 0.86 | 0.00 | 93 | 1015.4 |
| 20260508080457 | 53 | 26 | 0.0 | 0.0 | 0.00 | 0.86 | 0.00 | 93 | 1015.2 |
| 20260508075950 | 54 | 26 | 0.0 | 0.0 | 0.00 | 0.87 | 0.00 | 93 | 1015.1 |
| 20260508075444 | 54 | 26 | 0.0 | 0.0 | 0.00 | 0.89 | 0.00 | 93 | 1015.1 |
| 20260508074938 | 54 | 26 | 0.0 | 0.0 | 0.00 | 0.90 | 0.00 | 93 | 1015.1 |
| 20260508074654 | 54 | 26 | 0.0 | 0.0 | 0.00 | 0.91 | 0.00 | 93 | 1015.2 |
| 20260508073926 | 54 | 26 | 0.0 | 0.0 | 0.00 | 0.93 | 0.00 | 93 | 1015.1 |
| 20260508073645 | 54 | 26 | 0.0 | 0.0 | 0.00 | 0.94 | 0.00 | 93 | 1015.0 |
| 20260508072914 | 54 | 26 | 0.0 | 0.0 | 0.00 | 0.95 | 0.00 | 93 | 1015.0 |
| 20260508072629 | 54 | 26 | 0.0 | 0.0 | 0.00 | 0.96 | 0.00 | 93 | 1014.9 |
| 20260508071902 | 54 | 26 | 0.0 | 0.0 | 0.00 | 0.97 | 0.00 | 93 | 1014.9 |
| 20260508071357 | 55 | 26 | 0.0 | 0.0 | 0.00 | 0.99 | 0.00 | 93 | 1014.8 |
| 20260508070850 | 55 | 26 | 0.0 | 0.0 | 0.00 | 1.01 | 0.00 | 93 | 1014.9 |
| 20260508070602 | 55 | 26 | 0.0 | 0.0 | 0.00 | 1.04 | 0.00 | 93 | 1014.9 |
| 20260508065838 | 55 | 26 | 0.0 | 0.0 | 0.00 | 1.06 | 0.00 | 93 | 1014.9 |
| 20260508065332 | 55 | 26 | 0.0 | 0.0 | 0.00 | 1.10 | 0.00 | 93 | 1014.9 |
| 20260508064827 | 55 | 26 | 0.0 | 0.0 | 0.00 | 1.12 | 0.00 | 93 | 1014.8 |
| 20260508064320 | 55 | 26 | 0.0 | 0.0 | 0.00 | 1.15 | 0.00 | 93 | 1014.8 |
| 20260508063814 | 55 | 26 | 0.0 | 0.0 | 0.00 | 1.19 | 0.00 | 92 | 1014.7 |
| 20260508063308 | 55 | 26 | 0.0 | 0.0 | 0.00 | 1.23 | 0.00 | 93 | 1014.8 |
| 20260508062802 | 55 | 26 | 0.0 | 0.0 | 0.00 | 1.31 | 0.00 | 93 | 1014.9 |
| 20260508062517 | 55 | 26 | 0.0 | 0.0 | 0.00 | 1.42 | 0.00 | 93 | 1015.0 |
| 20260508061751 | 55 | 26 | 0.0 | 0.0 | 0.00 | 1.53 | 0.00 | 93 | 1015.0 |
| 20260508061506 | 56 | 26 | 0.0 | 0.0 | 0.00 | 1.59 | 0.00 | 93 | 1015.0 |
| 20260508060738 | 56 | 26 | 0.0 | 0.0 | 0.00 | 1.64 | 0.00 | 92 | 1015.0 |
| 20260508060232 | 56 | 26 | 0.0 | 0.0 | 0.00 | 1.71 | 0.00 | 93 | 1014.9 |
| 20260508055727 | 56 | 26 | 0.0 | 0.0 | 0.00 | 1.74 | 0.00 | 93 | 1015.0 |
| 20260508055220 | 56 | 26 | 0.0 | 0.0 | 0.00 | 1.76 | 0.00 | 92 | 1015.1 |
| 20260508054945 | 56 | 26 | 0.0 | 0.0 | 0.00 | 1.76 | 0.00 | 93 | 1015.1 |
| 20260508054208 | 56 | 26 | 0.0 | 0.0 | 0.00 | 1.77 | 0.00 | 93 | 1014.9 |
| 20260508053704 | 56 | 26 | 0.0 | 0.0 | 0.00 | 1.77 | 0.00 | 93 | 1014.9 |
| 20260508053423 | 57 | 26 | 0.0 | 0.0 | 0.00 | 1.78 | 0.00 | 93 | 1014.8 |
| 20260508052918 | 57 | 26 | 0.0 | 0.0 | 0.00 | 1.78 | 0.00 | 93 | 1014.8 |
| 20260508052155 | 57 | 26 | 0.0 | 0.0 | 0.00 | 1.78 | 0.00 | 93 | 1014.9 |
| 20260508051656 | 57 | 26 | 0.0 | 0.0 | 0.00 | 1.78 | 0.00 | 93 | 1014.8 |
| 20260508051153 | 57 | 26 | 0.0 | 0.0 | 0.00 | 1.78 | 0.00 | 93 | 1014.9 |
| 20260508050150 | 57 | 26 | 0.0 | 0.0 | 0.00 | 1.78 | 0.00 | 93 | 1014.7 |
| 20260508045646 | 57 | 26 | 0.0 | 0.0 | 0.00 | 1.78 | 0.00 | 93 | 1014.7 |
| 20260508045408 | 57 | 26 | 0.0 | 0.0 | 0.00 | 1.78 | 0.00 | 92 | 1014.7 |
| 20260508044647 | 57 | 26 | 0.0 | 0.0 | 0.00 | 1.78 | 0.00 | 92 | 1014.7 |
| 20260508044145 | 57 | 26 | 0.0 | 0.0 | 0.00 | 1.78 | 0.00 | 92 | 1014.6 |
| 20260508043913 | 58 | 26 | 0.0 | 0.0 | 0.00 | 1.78 | 0.00 | 92 | 1014.5 |
| 20260508043143 | 58 | 26 | 0.0 | 0.0 | 0.00 | 1.78 | 0.00 | 92 | 1014.4 |
| 20260508042643 | 58 | 26 | 0.0 | 0.0 | 0.00 | 1.78 | 0.00 | 93 | 1014.5 |
| 20260508042143 | 58 | 26 | 0.0 | 0.0 | 0.00 | 1.78 | 0.00 | 93 | 1014.4 |
| 20260508041641 | 58 | 26 | 0.0 | 0.0 | 0.00 | 1.78 | 0.00 | 93 | 1014.3 |
| 20260508041405 | 58 | 26 | 0.0 | 0.0 | 0.00 | 1.78 | 0.00 | 93 | 1014.1 |
| 20260508040639 | 58 | 26 | 0.0 | 0.0 | 0.00 | 1.78 | 0.00 | 92 | 1014.4 |
| 20260508040139 | 58 | 26 | 0.0 | 0.0 | 0.00 | 1.78 | 0.00 | 92 | 1014.3 |
| 20260508035856 | 58 | 26 | 0.0 | 0.0 | 0.00 | 1.78 | 1.78 | 92 | 1014.3 |
| 20260508035127 | 58 | 26 | 0.0 | 0.0 | 0.00 | 1.78 | 1.78 | 92 | 1014.4 |
| 20260508034621 | 58 | 26 | 0.0 | 0.0 | 0.00 | 1.78 | 1.78 | 92 | 1014.4 |
| 20260508034337 | 58 | 26 | 0.0 | 0.0 | 0.00 | 1.78 | 1.78 | 92 | 1014.0 |
| 20260508033608 | 58 | 26 | 0.0 | 0.0 | 0.00 | 1.78 | 1.78 | 92 | 1014.1 |
| 20260508033103 | 58 | 26 | 0.0 | 0.0 | 0.00 | 1.78 | 1.78 | 92 | 1014.0 |
| 20260508032557 | 58 | 26 | 0.0 | 0.0 | 0.00 | 1.78 | 1.78 | 92 | 1014.1 |
| 20260508032051 | 58 | 26 | 0.0 | 0.0 | 0.00 | 1.79 | 1.78 | 93 | 1014.3 |
| 20260508031551 | 58 | 26 | 0.0 | 0.0 | 0.00 | 1.79 | 1.78 | 93 | 1014.3 |
| 20260508031049 | 58 | 26 | 0.0 | 0.0 | 0.00 | 1.80 | 1.78 | 93 | 1014.0 |
| 20260508030549 | 58 | 26 | 0.0 | 0.0 | 0.00 | 1.80 | 1.78 | 92 | 1014.0 |
| 20260508030044 | 58 | 26 | 0.0 | 0.0 | 0.00 | 1.81 | 1.78 | 92 | 1014.3 |
| 20260508025807 | 59 | 26 | 0.0 | 0.0 | 0.00 | 1.81 | 1.78 | 92 | 1014.1 |
| 20260508025045 | 59 | 26 | 0.0 | 1.0 | 0.00 | 1.82 | 1.78 | 92 | 1014.0 |
| 20260508024543 | 59 | 26 | 0.0 | 1.0 | 0.00 | 1.89 | 1.78 | 92 | 1014.0 |
| 20260508024041 | 59 | 26 | 0.0 | 0.0 | 0.00 | 1.91 | 1.78 | 92 | 1013.9 |
| 20260508023539 | 59 | 26 | 0.0 | 0.0 | 0.00 | 1.95 | 1.78 | 92 | 1013.7 |
| 20260508023258 | 59 | 26 | 0.0 | 0.0 | 0.00 | 1.98 | 1.78 | 92 | 1013.8 |
| 20260508022753 | 59 | 26 | 0.0 | 0.0 | 0.00 | 2.00 | 1.78 | 92 | 1013.8 |